Lawrence, KS

2:40 PM CDT on September 25, 2017 (GMT -0500)
Lawrence Municipal

Weather History for KLWC - April, 2014

Change the Weather History Date:

Friday, April 25, 2014

  Actual Average Record
Temperature  
Mean Temperature 59 °F 58 °F  
Max Temperature 80 °F 70 °F 94 °F (2012)
Min Temperature 37 °F 46 °F 28 °F (2013)
Degree Days  
Heating Degree Days 6 8  
Month to date heating degree days 312 288  
Since 1 July heating degree days 5479 4944  
Cooling Degree Days 0 1  
Month to date cooling degree days 6 18  
Year to date cooling degree days 6 21  
Growing Degree Days 8 (Base 50)    
Moisture  
Dew Point 42 °F    
Average Humidity 64    
Maximum Humidity 100    
Minimum Humidity 28    
Precipitation  
Precipitation 0.00 in 0.14 in 0.71 in (2011)
Month to date precipitation 2.94 2.97  
Year to date precipitation 4.96 7.90  
Sea Level Pressure  
Sea Level Pressure 29.87 in    
Wind  
Wind Speed 8 mph (South)    
Max Wind Speed 22 mph    
Max Gust Speed 30 mph    
Visibility 9 miles    
Events      
T = Trace of Precipitation, MM = Missing Value Source: NWS Daily Summary

Daily Weather History Graph

Daily Weather History Graph

Search for Another Location

Airport or City:

Trip Planner

Search our weather history database for the weather conditions in past years. The results will help you decide how hot, cold, wet, or windy it might be!

Date:

Astronomy

Apr. 25, 2014 Rise Set
Actual Time 6:30 AM CDT 8:07 PM CDT
Civil Twilight 6:02 AM CDT 8:36 PM CDT
Nautical Twilight 5:27 AM CDT 9:10 PM CDT
Astronomical Twilight 4:51 AM CDT 9:47 PM CDT
Moon 4:17 AM CDT 4:32 PM CDT
Length of Visible Light 14h 34m
Length of Day
13h 37m
Waning Crescent, 15% of the Moon is Illuminated
Apr 25
Waning Crescent
Apr 29
New
May 6
First Quarter
May 14
Full
May 21
Last Quarter

Hourly Weather History & Observations

Time (CDT) Temp. Dew Point Humidity Pressure Visibility Wind Dir Wind Speed Gust Speed Precip Events Conditions
12:52 AM 42.1 °F 39.9 °F 92% 29.88 in 10.0 mi Calm Calm - N/A   Clear
1:52 AM 41.0 °F 39.0 °F 93% 29.89 in 9.0 mi Calm Calm - N/A   Clear
2:52 AM 39.9 °F 39.0 °F 97% 29.88 in 5.0 mi Calm Calm - N/A   Clear
3:41 AM 39.9 °F 39.0 °F 97% 29.88 in 2.5 mi Calm Calm - N/A   Clear
3:49 AM 39.2 °F 39.2 °F 100% 29.89 in 1.2 mi Calm Calm - N/A   Clear
3:52 AM 39.9 °F 39.0 °F 97% 29.89 in 1.0 mi Calm Calm - N/A   Clear
4:09 AM 39.0 °F 39.0 °F 100% 29.89 in 6.0 mi Calm Calm - N/A   Clear
4:52 AM 37.9 °F 37.0 °F 97% 29.90 in 8.0 mi Calm Calm - N/A   Clear
5:52 AM 39.0 °F 37.0 °F 93% 29.91 in 10.0 mi Calm Calm - N/A   Clear
6:52 AM 39.0 °F 37.9 °F 96% 29.92 in 10.0 mi Calm Calm - N/A   Clear
7:52 AM 48.9 °F 45.0 °F 86% 29.93 in 10.0 mi Calm Calm - N/A   Clear
8:52 AM 57.0 °F 46.9 °F 69% 29.93 in 10.0 mi Calm Calm - N/A   Clear
9:52 AM 63.0 °F 44.1 °F 50% 29.93 in 10.0 mi West 12.7 mph - N/A   Clear
10:52 AM 66.0 °F 44.1 °F 45% 29.93 in 10.0 mi SW 10.4 mph - N/A   Clear
11:52 AM 72.0 °F 48.0 °F 43% 29.92 in 10.0 mi WSW 10.4 mph - N/A   Clear
12:52 PM 73.9 °F 48.0 °F 40% 29.90 in 10.0 mi SW 11.5 mph - N/A   Clear
1:52 PM 77.0 °F 42.1 °F 29% 29.88 in 10.0 mi SSW 16.1 mph - N/A   Clear
2:52 PM 78.1 °F 43.0 °F 29% 29.86 in 10.0 mi SSW 16.1 mph 23.0 mph N/A   Clear
3:52 PM 79.0 °F 42.1 °F 27% 29.84 in 10.0 mi South 12.7 mph 20.7 mph N/A   Clear
4:52 PM 78.1 °F 45.0 °F 31% 29.82 in 10.0 mi South 18.4 mph 24.2 mph N/A   Clear
5:52 PM 77.0 °F 43.0 °F 30% 29.82 in 10.0 mi South 16.1 mph - N/A   Clear
6:52 PM 73.9 °F 44.1 °F 34% 29.81 in 10.0 mi South 15.0 mph - N/A   Clear
7:52 PM 70.0 °F 44.1 °F 39% 29.79 in 10.0 mi South 10.4 mph - N/A   Clear
8:52 PM 66.0 °F 45.0 °F 47% 29.79 in 10.0 mi South 10.4 mph - N/A   Clear
9:52 PM 66.9 °F 42.1 °F 40% 29.80 in 10.0 mi South 11.5 mph - N/A   Clear
10:52 PM 60.1 °F 44.1 °F 55% 29.82 in 10.0 mi ESE 5.8 mph - N/A   Clear
11:52 PM 61.0 °F 44.1 °F 54% 29.81 in 10.0 mi ESE 6.9 mph - N/A   Clear